Location: Carri�res
(48.9069°N, 2.1792°E)
Time: 12:10:47
(UTC+00:00)

deb Kosmos- 1898 - Pass Details

Date: 29 July 2021
Orbit: 731 x 754 km, 74.0° (Epoch: 18 September)

Event Time Altitude Azimuth Distance (km) Brightness Sun altitude
Exits shadow 02:45:24 17° 200° (SSW) 1,841 ? -12.8°
Maximum altitude 02:49:27 88° 110° (ESE) 753 ? -12.4°
Drops below altitude 10° 02:54:37 10° 24° (NNE) 2,278 ? -11.8°
Sets 02:57:00 0° 24° (NNE) 3,209 ? -11.5°
